Location: Unspecified
(0.0000°N, 0.0000°E)
Time: 17:58:48
(UTC+00:00)

STARLINK 1058 - Pass Details

Date: 15 January 2020
Orbit: 548 x 551 km, 53.0° (Epoch: 17 January)

Event Time Altitude Azimuth Distance (km) Brightness Sun altitude
Rises 19:35:30 0° 314° (NW) 2,699 7.5 -20.0°
Reaches altitude 10° 19:37:48 10° 307° (NW) 1,810 6.6 -20.6°
Maximum altitude 19:41:42 42° 236° (SW) 790 4.9 -21.5°
Drops below altitude 10° 19:45:37 10° 165° (SSE) 1,819 6.3 -22.4°
Sets 19:47:57 0° 157° (SSE) 2,715 7.2 -22.9°
